Home > Weather > Timișoara > Past weeks

Flag for Romania Weather for the Past 2 Weeks in Timișoara, Romania

Now
37 °F

Sunny.


Feels Like: 31 °F
Forecast: 41 / 48 °F
Wind: 9 mph from Southeast

Location: Timisoara Airport

Current Time: Feb 12, 2016 at 10:07:07 AM

Latest Report: Feb 12, 2016 at 9:30 AM


Visibility: 10 mi

Pressure: 29.86 "Hg

Humidity: 81%

Dew point: 32 °F

Location of TimișoaraLocation

Historic Weather in Timișoara — Graph

°F

Timișoara Temperature Yesterday

Maximum temperature yesterday: 52 °F (at 4:00 PM)
Minimum temperature yesterday: 32 °F (at 9:30 PM)
Average temperature yesterday: 41 °F

High & Low Weather Summary for the Past Weeks

 TemperatureHumidityPressure
High63 °F (Feb 9, 3:00 PM)100% (Jan 28, 9:30 AM)30.48 "Hg (Jan 28, 9:30 AM)
Low23 °F (Feb 6, 3:00 AM)40% (Feb 11, 4:30 PM)29.24 "Hg (Feb 10, 1:30 PM)
Average41 °F86%30.07 "Hg
* Reported Jan 28 9:00 AM — Feb 12 9:00 AM, Timișoara, Weather by CustomWeather, © 2016

Note: Actual official high and low records may vary slightly from our data, if they occured in-between our weather recording intervals... More about our weather records

Advertising

Timișoara Weather History for the Previous 24 Hours

 ConditionsComfort  
Time TempWeatherWind HumidityBarometerVisibility
9:00 AM
Fri, Feb 12
36 °FSunny.7 mph87%29.86 "Hg10 mi
8:30 AM32 °FSunny.8 mph93%29.86 "Hg10 mi
8:00 AM30 °FSunny.8 mph93%29.86 "Hg10 mi
7:30 AM30 °FClear.6 mph93%29.86 "Hg10 mi
7:00 AM30 °FClear.8 mph100%29.86 "Hg10 mi
6:30 AM30 °FClear.7 mph93%29.86 "Hg10 mi
6:00 AM32 °FClear.9 mph93%29.86 "Hg10 mi
5:30 AM32 °FClear.9 mph93%29.86 "Hg10 mi
5:00 AM32 °FClear.8 mph93%29.86 "Hg10 mi
4:30 AM30 °FClear.8 mph93%29.86 "Hg10 mi
4:00 AM30 °FClear.6 mph93%29.86 "Hg10 mi
3:30 AM30 °FClear.7 mph93%29.86 "Hg10 mi
3:00 AM30 °FClear.6 mph93%29.86 "Hg10 mi
2:30 AM32 °FClear.6 mph93%29.86 "Hg10 mi
2:00 AM30 °FClear.7 mph93%29.83 "Hg10 mi
1:30 AM32 °FClear.5 mph93%29.83 "Hg10 mi
1:00 AM32 °FClear.5 mph87%29.86 "Hg10 mi
11:00 PM
Thu, Feb 11
34 °FClear.5 mph93%29.83 "Hg10 mi
10:30 PM32 °FClear.3 mph100%29.83 "Hg10 mi
10:00 PM34 °FClear.5 mph87%29.83 "Hg10 mi
9:30 PM32 °FClear.5 mph93%29.83 "Hg10 mi
9:00 PM34 °FClear.6 mph87%29.83 "Hg10 mi
8:30 PM36 °FClear.7 mph87%29.83 "Hg10 mi
8:00 PM39 °FClear.2 mph70%29.80 "Hg10 mi
7:30 PM41 °FClear.6 mph66%29.80 "Hg10 mi
7:00 PM41 °FClear.5 mph66%29.80 "Hg10 mi
6:30 PM45 °FPassing clouds.3 mph57%29.80 "HgN/A
6:00 PM46 °FPassing clouds.3 mph53%29.80 "HgN/A
5:30 PM48 °FPassing clouds.7 mph50%29.80 "HgN/A
5:00 PM50 °FPassing clouds.7 mph43%29.77 "HgN/A
4:30 PM50 °FPassing clouds.7 mph40%29.77 "HgN/A
4:00 PM52 °FPassing clouds.8 mph41%29.77 "HgN/A
3:30 PM50 °FPassing clouds.5 mph47%29.77 "HgN/A
3:00 PM50 °FScattered clouds.6 mph47%29.77 "HgN/A
2:30 PM48 °FScattered clouds.6 mph54%29.77 "HgN/A
2:00 PM50 °FScattered clouds.8 mph50%29.77 "HgN/A
1:30 PM48 °FPassing clouds.5 mph58%29.77 "HgN/A
1:00 PM48 °FPassing clouds.6 mph62%29.77 "HgN/A
12:30 PM46 °FPassing clouds.7 mph66%29.77 "HgN/A
12:00 PM45 °FPassing clouds.6 mph71%29.80 "HgN/A
11:30 AM43 °FPassing clouds.6 mph71%29.77 "HgN/A
11:00 AM41 °FSunny.6 mph81%29.77 "Hg10 mi
10:30 AM39 °FSunny.6 mph87%29.77 "Hg10 mi
10:00 AM39 °FPassing clouds.7 mph87%29.77 "HgN/A
Weather by CustomWeather, © 2016

See weather overviewHow to use our weather pages